Location: Bronnegerveen
(52.9548°N, 6.8388°E)
Time: 01:50:31
(UTC+00:00)

Meteor 1-11 - Pass Details

Date: 15 June 2025
Orbit: 833 x 891 km, 81.2° (Epoch: 07 July)

Event Time Altitude Azimuth Distance (km) Brightness Sun altitude
Exits shadow 01:31:26 11° 192° (SSW) 2,464 6.0 -9.5°
Maximum altitude 01:37:03 89° 279° (W) 890 4.3 -9.1°
Drops below altitude 10° 01:42:55 10° 13° (NNE) 2,566 8.1 -8.7°
Sets 01:45:24 0° 14° (NNE) 3,513 9.1 -8.5°
